STARLINK-30605

Satellite information

Favourite Embed

Satellite Type and Status

PAYLOADIN ORBIT

Key statistics

Satellite STARLINK-30605 at a glance.

Uptime

747

Days in orbit

Revolutions

≈ 15.3

Per day

Orbit

LEO

Low Earth Orbit

Inclination

53.2

Latest

Satellite identification and parameters

Extended collection of information and parameters for STARLINK-30605.

Object identification

Identified? True

Debris? False

Object name: STARLINK-30605

International designator: 2023-161E

Object number (NORAD): 58101

Object ID (CCSDS): 58101

Country: UNITED STATES OF AMERICA (US)

Current information (Y/N): Y

RCS size: LARGE

Orbital parameters

Period: 94.105 minutes

Inclination: 53.1622 deg

SMA: 6853.354 km

Apoapsis: 476.065 km

Periapsis: 474.373 km

RAAN: 21.8351 deg

Eccentricy: 0.00012346

Argument of periapsis: 75.8187 deg

Mean anomaly: 284.2951 deg

Mean motion: 15.30199244 rev/day

Mean motion (dot): 0.00003231 rev/day2

B* drag term: 0.0001211654 1/REarth

Two-line elements (TLE)

Creation date: Nov. 6, 2025, 3:23 a.m.

Reference frame: TEME

Reference center: EARTH

Epoch: Nov. 5, 2025, 2:16 p.m. UTC

TLE line 0: 0 STARLINK-30605

TLE line 1: 1 58101U 23161E 25309.59445140 .00003231 00000-0 12117-3 0 9993

TLE line 2: 2 58101 53.1622 21.8351 0001235 75.8187 284.2951 15.30199244115425

Live tracking on map

Real-time ground track for satellite STARLINK-30605.

In-orbit conjunctions

There are no conjunctions computed for STARLINK-30605, at the moment. Check back to stay up to date, as we update our databases every day.

Go to all conjunctions

Associated space launch

A batch of 21 satellites for the Starlink mega-constellation - SpaceX's project for space-based Internet communication system.

STARLINK-30605 was lifted into orbit during the mission ‘Falcon 9 Block 5 | Starlink Group 7-5’, on board a Falcon 9 space rocket.

The launch took place on Oct. 21, 2023, 8:23 a.m. from Space Launch Complex 4E.

For more information about the launch, click the button.

Launch to space Falcon 9 Block 5 | Starlink Group 7-5
Falcon 9 Block 5 | Starlink Group 7-5

Agency: SpaceX

Status: Launch Successful

Launch date: Oct. 21, 2023, 8:23 a.m. UTC

Rocket: Falcon 9

Launch pad: Space Launch Complex 4E

Location: Vandenberg SFB, CA, USA

...

Latest news about this satellite

News about space launch
Launch Roundup: SpaceX to launch three Starlink missions; India to test crew abort system

Another busy period in spaceflight is underway with three Falcon 9 rockets with Starlink payloads and the first test flight of India’s Gaganyaan crew-capable spacecraft. Starlink 6-23 and 6-24 are set to fly from Space Launch Complex (SLC) 40 at Cape Cana...


Newsletter sign-up

Weekly statistics, charts and insights to help you stay on top of the space industry.